GW4460 Weather Reports


time (UTC)temp
C
wind
direction
speed
KPH
gust
KPH
rain 1hr
cm
rain 24hr
cm
rain mn
cm
humidity
%
barometer
mb
20260906213428 39 85 6.4 8.0 0.00 0.00 0.00 29 1012.2
20260906212926 39 48 0.0 8.0 0.00 0.00 0.00 29 1012.1
20260906212421 39 45 6.4 12.9 0.00 0.00 0.00 29 1012.3
20260906211921 39 78 4.8 11.3 0.00 0.00 0.00 29 1012.3
20260906211416 39 62 11.3 16.1 0.00 0.00 0.00 29 1012.4
20260906210910 39 30 1.6 12.9 0.00 0.00 0.00 29 1012.4
20260906210407 40 115 6.4 8.0 0.00 0.00 0.00 29 1012.7
20260906205901 40 224 0.0 9.7 0.00 0.00 0.00 29 1012.8
20260906205357 39 359 0.0 9.7 0.00 0.00 0.00 30 1012.7
20260906204853 39 224 0.0 14.5 0.00 0.00 0.00 29 1013.1
20260906204351 40 108 8.0 17.7 0.00 0.00 0.00 29 1012.9
20260906203851 40 200 0.0 8.0 0.00 0.00 0.00 29 1013.3
20260906203347 40 248 6.4 6.4 0.00 0.00 0.00 29 1013.1
20260906202844 40 149 3.2 11.3 0.00 0.00 0.00 29 1013.0
20260906202343 40 25 6.4 9.7 0.00 0.00 0.00 29 1013.2
20260906201843 40 244 1.6 14.5 0.00 0.00 0.00 29 1013.4
20260906201338 40 195 6.4 14.5 0.00 0.00 0.00 29 1013.2
20260906200834 40 41 4.8 11.3 0.00 0.00 0.00 30 1013.4
20260906200330 40 112 3.2 6.4 0.00 0.00 0.00 29 1013.4
20260906195830 40 186 8.0 14.5 0.00 0.00 0.00 29 1013.5
20260906195326 40 266 3.2 6.4 0.00 0.00 0.00 30 1013.4
20260906194823 40 207 1.6 8.0 0.00 0.00 0.00 31 1013.6
20260906194318 40 159 1.6 8.0 0.00 0.00 0.00 32 1013.8
20260906193813 40 48 3.2 11.3 0.00 0.00 0.00 31 1013.9
20260906193308 39 21 3.2 9.7 0.00 0.00 0.00 32 1013.8
20260906192804 39 87 4.8 9.7 0.00 0.00 0.00 32 1013.9
20260906192306 40 191 6.4 16.1 0.00 0.00 0.00 31 1014.0
20260906191802 40 92 1.6 11.3 0.00 0.00 0.00 31 1014.0
20260906191258 39 359 3.2 9.7 0.00 0.00 0.00 32 1014.0
20260906190757 39 46 3.2 8.0 0.00 0.00 0.00 33 1014.1
20260906190251 38 31 8.0 8.0 0.00 0.00 0.00 34 1014.2
20260906185751 38 73 6.4 11.3 0.00 0.00 0.00 34 1014.2
20260906185250 38 71 3.2 8.0 0.00 0.00 0.00 33 1014.3
20260906184745 38 135 4.8 9.7 0.00 0.00 0.00 33 1014.7
20260906184240 39 173 1.6 9.7 0.00 0.00 0.00 33 1014.3
20260906183735 38 226 3.2 9.7 0.00 0.00 0.00 34 1014.5
20260906183232 39 191 3.2 14.5 0.00 0.00 0.00 33 1014.5
20260906182731 38 242 1.6 6.4 0.00 0.00 0.00 33 1014.8
20260906182228 38 72 1.6 8.0 0.00 0.00 0.00 35 1014.8
20260906181722 38 20 3.2 8.0 0.00 0.00 0.00 34 1015.1
20260906181219 38 37 6.4 8.0 0.00 0.00 0.00 34 1015.0
20260906180719 38 226 6.4 12.9 0.00 0.00 0.00 34 1015.1
20260906180214 38 237 3.2 11.3 0.00 0.00 0.00 35 1015.1
20260906175712 38 180 4.8 11.3 0.00 0.00 0.00 35 1015.3
20260906175208 37 100 6.4 12.9 0.00 0.00 0.00 36 1015.5
20260906174706 37 231 1.6 8.0 0.00 0.00 0.00 36 1015.5
20260906174200 37 97 9.7 11.3 0.00 0.00 0.00 36 1015.4
20260906173656 37 175 3.2 6.4 0.00 0.00 0.00 37 1015.5
20260906173151 37 87 4.8 17.7 0.00 0.00 0.00 37 1015.5
20260906172651 38 110 11.3 11.3 0.00 0.00 0.00 36 1015.6
20260906172146 37 235 3.2 4.8 0.00 0.00 0.00 37 1015.9
20260906171646 37 101 8.0 9.7 0.00 0.00 0.00 37 1015.8
20260906171141 37 216 3.2 8.0 0.00 0.00 0.00 37 1015.8
20260906170638 37 109 4.8 4.8 0.00 0.00 0.00 37 1015.9
20260906170137 37 190 3.2 11.3 0.00 0.00 0.00 38 1016.0
20260906165633 38 84 9.7 11.3 0.00 0.00 0.00 36 1016.1
20260906165128 37 85 3.2 4.8 0.00 0.00 0.00 37 1016.0
20260906164627 37 224 4.8 6.4 0.00 0.00 0.00 37 1016.3
20260906164123 37 15 4.8 6.4 0.00 0.00 0.00 37 1016.2
20260906163619 37 195 3.2 4.8 0.00 0.00 0.00 37 1016.1
20260906163115 36 147 1.6 9.7 0.00 0.00 0.00 39 1016.2
20260906162612 36 167 1.6 6.4 0.00 0.00 0.00 39 1016.1
20260906162107 36 67 3.2 6.4 0.00 0.00 0.00 38 1016.1
20260906161606 36 31 1.6 8.0 0.00 0.00 0.00 40 1016.0
20260906161105 36 269 0.0 6.4 0.00 0.00 0.00 40 1016.1
20260906160604 36 16 3.2 3.2 0.00 0.00 0.00 41 1016.0
20260906160103 36 101 4.8 6.4 0.00 0.00 0.00 41 1016.1
20260906155601 34 228 1.6 8.0 0.00 0.00 0.00 44 1016.0
20260906155057 35 234 3.2 4.8 0.00 0.00 0.00 42 1015.8
20260906154552 35 218 4.8 4.8 0.00 0.00 0.00 42 1015.9
20260906154051 35 224 4.8 6.4 0.00 0.00 0.00 41 1016.0
20260906153549 35 214 3.2 4.8 0.00 0.00 0.00 43 1016.0
20260906153045 35 238 4.8 4.8 0.00 0.00 0.00 43 1016.1
20260906152545 33 197 0.0 4.8 0.00 0.00 0.00 46 1016.1
20260906152044 33 230 4.8 6.4 0.00 0.00 0.00 47 1016.0
20260906151540 34 223 4.8 8.0 0.00 0.00 0.00 44 1016.0
20260906151036 33 73 0.0 3.2 0.00 0.00 0.00 45 1016.1
20260906150531 32 246 1.6 3.2 0.00 0.00 0.00 48 1016.1
20260906150026 32 232 3.2 6.4 0.00 0.00 0.00 48 1015.8
20260906145525 33 273 3.2 6.4 0.00 0.00 0.00 47 1016.0
20260906145020 32 98 3.2 3.2 0.00 0.00 0.00 48 1015.8
20260906144514 32 57 1.6 4.8 0.00 0.00 0.00 48 1015.8
20260906144009 32 243 3.2 6.4 0.00 0.00 0.00 50 1016.0
20260906143505 32 229 4.8 4.8 0.00 0.00 0.00 48 1016.0
20260906143001 32 227 3.2 3.2 0.00 0.00 0.00 48 1015.9
20260906142500 32 331 0.0 3.2 0.00 0.00 0.00 50 1016.0
20260906141955 32 230 0.0 3.2 0.00 0.00 0.00 50 1015.9
20260906141454 32 128 0.0 1.6 0.00 0.00 0.00 50 1015.9
20260906140950 31 162 0.0 1.6 0.00 0.00 0.00 51 1015.9
20260906140444 30 44 0.0 1.6 0.00 0.00 0.00 53 1015.9
20260906135943 30 146 0.0 4.8 0.00 0.00 0.00 54 1015.8
20260906135441 30 0 3.2 3.2 0.00 0.00 0.00 55 1015.8
20260906134937 29 53 3.2 6.4 0.00 0.00 0.00 56 1015.8
20260906134433 28 107 3.2 4.8 0.00 0.00 0.00 57 1015.6
20260906133933 28 43 3.2 3.2 0.00 0.00 0.00 59 1015.5
20260906133429 28 69 1.6 4.8 0.00 0.00 0.00 58 1015.7
20260906132924 27 110 0.0 3.2 0.00 0.00 0.00 60 1015.6
20260906132419 26 220 1.6 4.8 0.00 0.00 0.00 63 1015.8
20260906131915 26 52 3.2 4.8 0.00 0.00 0.00 63 1015.6
20260906131410 26 62 0.0 3.2 0.00 0.00 0.00 64 1015.6
20260906130906 26 70 3.2 3.2 0.00 0.00 0.00 64 1015.6
20260906130405 25 122 3.2 3.2 0.00 0.00 0.00 65 1015.5
20260906125904 25 128 3.2 3.2 0.00 0.00 0.00 66 1015.5
20260906125401 25 130 0.0 3.2 0.00 0.00 0.00 66 1015.4
20260906124856 25 108 3.2 3.2 0.00 0.00 0.00 67 1015.4
20260906124352 24 136 1.6 3.2 0.00 0.00 0.00 68 1015.4
20260906123851 24 121 0.0 1.6 0.00 0.00 0.00 68 1015.4
20260906123346 24 142 0.0 0.0 0.00 0.00 0.00 68 1015.3
20260906122846 24 142 0.0 0.0 0.00 0.00 0.00 69 1015.1
20260906122341 23 129 0.0 0.0 0.00 0.00 0.00 69 1015.2
20260906121838 23 50 0.0 0.0 0.00 0.00 0.00 69 1015.3
20260906121333 23 145 0.0 1.6 0.00 0.00 0.00 68 1015.1
20260906120830 24 269 0.0 0.0 0.00 0.00 0.00 68 1015.1
20260906120325 24 269 0.0 0.0 0.00 0.00 0.00 67 1014.9
20260906115821 24 329 0.0 1.6 0.00 0.00 0.00 67 1014.9
20260906115316 24 59 0.0 0.0 0.00 0.00 0.00 67 1014.9
20260906114816 24 44 0.0 0.0 0.00 0.00 0.00 67 1014.8
20260906114311 24 117 0.0 0.0 0.00 0.00 0.00 67 1014.7
20260906113806 25 89 0.0 0.0 0.00 0.00 0.00 66 1014.8
20260906113305 25 141 0.0 3.2 0.00 0.00 0.00 66 1014.5
20260906112801 25 114 3.2 3.2 0.00 0.00 0.00 66 1014.7
20260906112256 25 119 1.6 3.2 0.00 0.00 0.00 65 1014.4
20260906111756 25 139 0.0 1.6 0.00 0.00 0.00 65 1014.5
20260906111255 25 37 0.0 0.0 0.00 0.00 0.00 65 1014.2
20260906110751 25 113 0.0 1.6 0.00 0.00 0.00 65 1014.2
20260906110247 25 46 0.0 1.6 0.00 0.00 0.00 65 1014.2
20260906105745 25 89 1.6 3.2 0.00 0.00 0.00 64 1014.0
20260906105241 25 89 0.0 3.2 0.00 0.00 0.00 64 1014.1
20260906104737 25 117 0.0 0.0 0.00 0.00 0.00 64 1013.8
20260906104235 25 113 0.0 1.6 0.00 0.00 0.00 64 1014.0
20260906103733 25 111 3.2 3.2 0.00 0.00 0.00 64 1014.0
20260906103228 25 75 0.0 1.6 0.00 0.00 0.00 64 1014.1
20260906102724 25 230 0.0 0.0 0.00 0.00 0.00 64 1014.1
20260906102223 25 154 0.0 0.0 0.00 0.00 0.00 64 1014.2
20260906101718 25 135 0.0 3.2 0.00 0.00 0.00 64 1014.1
20260906101213 25 224 0.0 0.0 0.00 0.00 0.00 64 1014.2
20260906100708 25 205 0.0 0.0 0.00 0.00 0.00 63 1014.0
20260906100208 25 106 0.0 1.6 0.00 0.00 0.00 63 1013.9
20260906095703 25 117 0.0 1.6 0.00 0.00 0.00 62 1014.0
20260906095159 25 62 0.0 1.6 0.00 0.00 0.00 62 1014.0
20260906094657 25 72 1.6 3.2 0.00 0.00 0.00 62 1013.9
20260906094153 25 135 0.0 1.6 0.00 0.00 0.00 61 1013.9
20260906093649 26 304 0.0 1.6 0.00 0.00 0.00 61 1013.8
20260906093149 26 297 0.0 0.0 0.00 0.00 0.00 60 1013.9
20260906092645 26 309 0.0 1.6 0.00 0.00 0.00 60 1013.8
20260906092144 26 230 0.0 0.0 0.00 0.00 0.00 59 1014.0
20260906091641 26 164 0.0 0.0 0.00 0.00 0.00 59 1013.8
20260906091137 26 200 0.0 1.6 0.00 0.00 0.00 58 1013.8
20260906090633 27 124 0.0 3.2 0.00 0.00 0.00 57 1013.7
20260906090132 27 104 0.0 0.0 0.00 0.00 0.00 57 1013.9
20260906085631 27 173 0.0 1.6 0.00 0.00 0.00 57 1014.0
20260906085132 27 240 0.0 1.6 0.00 0.00 0.00 57 1013.8
20260906084632 27 145 1.6 3.2 0.00 0.00 0.00 57 1013.7
20260906084130 27 215 0.0 1.6 0.00 0.00 0.00 57 1013.7
20260906083627 27 205 0.0 1.6 0.00 0.00 0.00 57 1013.8
20260906083127 27 224 0.0 1.6 0.00 0.00 0.00 56 1013.8
20260906082622 27 242 0.0 1.6 0.00 0.00 0.00 56 1013.8
20260906082117 27 187 0.0 3.2 0.00 0.00 0.00 56 1013.6
20260906081613 27 235 0.0 1.6 0.00 0.00 0.00 55 1013.5
20260906081108 27 236 0.0 1.6 0.00 0.00 0.00 55 1013.6
20260906080605 27 238 0.0 3.2 0.00 0.00 0.00 54 1013.5
20260906075601 28 152 1.6 3.2 0.00 0.00 0.00 53 1013.7
20260906075055 28 217 0.0 1.6 0.00 0.00 0.00 53 1013.8
20260906074551 28 172 1.6 4.8 0.00 0.00 0.00 53 1013.7
20260906074049 28 97 3.2 3.2 0.00 0.00 0.00 52 1013.9
20260906073544 28 234 1.6 1.6 0.00 0.00 0.00 52 1013.9
20260906073041 28 144 1.6 3.2 0.00 0.00 0.00 52 1013.9
20260906072541 28 185 0.0 3.2 0.00 0.00 0.00 52 1013.8
20260906072037 28 101 0.0 3.2 0.00 0.00 0.00 52 1013.8
20260906071533 28 202 1.6 3.2 0.00 0.00 0.00 51 1013.8
20260906071028 28 175 1.6 3.2 0.00 0.00 0.00 51 1013.7
20260906070524 28 180 1.6 4.8 0.00 0.00 0.00 51 1013.5
20260906070019 28 200 1.6 3.2 0.00 0.00 0.00 51 1013.6
20260906065519 28 212 0.0 3.2 0.00 0.00 0.00 51 1013.5
20260906065015 28 180 1.6 4.8 0.00 0.00 0.00 50 1013.7
20260906064511 28 176 1.6 4.8 0.00 0.00 0.00 50 1013.5
20260906064011 29 75 0.0 3.2 0.00 0.00 0.00 50 1013.5
20260906063506 29 187 1.6 3.2 0.00 0.00 0.00 50 1013.4
20260906063001 29 256 0.0 3.2 0.00 0.00 0.00 49 1013.4
20260906062456 29 97 0.0 3.2 0.00 0.00 0.00 49 1013.6
20260906061951 29 297 0.0 3.2 0.00 0.00 0.00 49 1013.7
20260906061442 30 217 3.2 3.2 0.00 0.00 0.00 48 1013.5
20260906060941 30 196 4.8 4.8 0.00 0.00 0.00 48 1013.4
20260906060438 30 256 0.0 3.2 0.00 0.00 0.00 48 1013.7
20260906055935 30 164 4.8 4.8 0.00 0.00 0.00 48 1013.8
20260906055430 30 146 3.2 4.8 0.00 0.00 0.00 48 1013.5
20260906054926 30 146 3.2 4.8 0.00 0.00 0.00 48 1013.7
20260906054420 30 206 0.0 3.2 0.00 0.00 0.00 48 1013.6
20260906053916 30 136 3.2 4.8 0.00 0.00 0.00 48 1013.6
20260906053412 30 56 1.6 3.2 0.00 0.00 0.00 48 1013.7
20260906052908 30 181 3.2 4.8 0.00 0.00 0.00 48 1013.7
20260906052403 30 44 0.0 3.2 0.00 0.00 0.00 48 1013.6
20260906051900 30 205 0.0 3.2 0.00 0.00 0.00 48 1013.8
20260906051400 30 28 0.0 3.2 0.00 0.00 0.00 48 1013.9
20260906050856 30 166 3.2 6.4 0.00 0.00 0.00 48 1013.7
20260906050351 30 309 0.0 4.8 0.00 0.00 0.00 48 1013.5
20260906045850 30 297 0.0 1.6 0.00 0.00 0.00 48 1013.7
20260906045349 30 179 4.8 4.8 0.00 0.00 0.00 48 1013.5
20260906044846 30 165 0.0 4.8 0.00 0.00 0.00 47 1013.7
20260906044345 30 158 0.0 3.2 0.00 0.00 0.00 47 1013.9
20260906043841 30 209 3.2 4.8 0.00 0.00 0.00 47 1013.6
20260906043337 30 151 1.6 6.4 0.00 0.00 0.00 47 1013.8
20260906042832 31 153 3.2 4.8 0.00 0.00 0.00 46 1013.8
20260906042331 31 123 1.6 4.8 0.00 0.00 0.00 46 1014.0
20260906041826 31 162 1.6 3.2 0.00 0.00 0.00 46 1014.1
20260906041322 31 38 1.6 3.2 0.00 0.00 0.00 45 1013.9
20260906040817 31 130 0.0 6.4 0.00 0.00 0.00 45 1013.9
20260906040312 31 46 1.6 6.4 0.00 0.00 0.00 45 1013.9
20260906035813 31 351 0.0 4.8 0.00 0.00 0.00 45 1014.0
20260906035308 31 191 1.6 4.8 0.00 0.00 0.00 45 1014.0
20260906034804 31 231 1.6 6.4 0.00 0.00 0.00 44 1013.7
20260906034303 31 164 0.0 3.2 0.00 0.00 0.00 44 1014.0
20260906033759 32 140 3.2 3.2 0.00 0.00 0.00 44 1014.2
20260906033258 32 166 0.0 6.4 0.00 0.00 0.00 43 1014.0
20260906032755 32 59 0.0 6.4 0.00 0.00 0.00 43 1013.9
20260906032255 32 171 0.0 6.4 0.00 0.00 0.00 43 1013.9
20260906031750 32 84 3.2 4.8 0.00 0.00 0.00 43 1013.8
20260906031247 32 46 0.0 6.4 0.00 0.00 0.00 42 1013.6
20260906030746 32 37 0.0 4.8 0.00 0.00 0.00 42 1013.7
20260906030241 32 53 4.8 4.8 0.00 0.00 0.00 42 1013.5
20260906025741 32 85 3.2 4.8 0.00 0.00 0.00 42 1013.7
20260906025235 32 84 3.2 6.4 0.00 0.00 0.00 41 1013.5
20260906024734 33 184 3.2 6.4 0.00 0.00 0.00 41 1013.4
20260906024233 33 95 4.8 9.7 0.00 0.00 0.00 41 1013.5
20260906023729 33 95 1.6 6.4 0.00 0.00 0.00 41 1013.4
20260906023225 33 77 3.2 8.0 0.00 0.00 0.00 40 1012.9
20260906022720 33 78 3.2 8.0 0.00 0.00 0.00 40 1013.2
20260906022215 33 30 3.2 6.4 0.00 0.00 0.00 40 1012.8
20260906021711 33 107 3.2 8.0 0.00 0.00 0.00 39 1012.9
20260906021210 33 78 3.2 8.0 0.00 0.00 0.00 39 1013.0
20260906020705 33 119 0.0 6.4 0.00 0.00 0.00 39 1012.8
20260906020200 33 131 3.2 8.0 0.00 0.00 0.00 39 1012.8
20260906015700 33 1 1.6 4.8 0.00 0.00 0.00 38 1012.5
20260906015158 34 79 1.6 3.2 0.00 0.00 0.00 38 1012.8
20260906014658 34 117 3.2 6.4 0.00 0.00 0.00 38 1012.6
20260906014154 34 40 6.4 9.7 0.00 0.00 0.00 38 1012.5
20260906013650 35 160 3.2 12.9 0.00 0.00 0.00 37 1012.5
20260906013145 35 95 3.2 14.5 0.00 0.00 0.00 37 1012.4
20260906012645 35 79 6.4 9.7 0.00 0.00 0.00 37 1012.1
20260906012145 35 114 3.2 8.0 0.00 0.00 0.00 36 1012.2
20260906011641 35 145 4.8 8.0 0.00 0.00 0.00 36 1012.0
20260906011136 35 92 3.2 9.7 0.00 0.00 0.00 36 1012.0
20260906010631 35 114 6.4 9.7 0.00 0.00 0.00 35 1011.8
20260906010128 35 69 1.6 8.0 0.00 0.00 0.00 35 1012.1
20260906005627 35 99 6.4 9.7 0.00 0.00 0.00 35 1011.9
20260906005126 35 114 8.0 9.7 0.00 0.00 0.00 34 1011.8
20260906004626 36 109 0.0 8.0 0.00 0.00 0.00 34 1011.9
20260906004120 36 162 3.2 9.7 0.00 0.00 0.00 34 1011.9
20260906003616 36 190 3.2 6.4 0.00 0.00 0.00 33 1011.8
20260906003112 36 182 1.6 6.4 0.00 0.00 0.00 32 1012.0
20260906002612 36 130 3.2 6.4 0.00 0.00 0.00 32 1012.1
20260906002107 37 172 3.2 6.4 0.00 0.00 0.00 31 1011.6
20260906001603 37 45 6.4 8.0 0.00 0.00 0.00 31 1011.8
20260906001102 37 258 3.2 8.0 0.00 0.00 0.00 31 1011.8
20260906000559 37 144 3.2 6.4 0.00 0.00 0.00 31 1011.8
20260906000053 37 68 6.4 9.7 0.00 0.00 0.00 31 1011.6
20260905235552 37 94 6.4 11.3 0.00 0.00 0.00 31 1011.4
20260905235048 37 94 6.4 11.3 0.00 0.00 0.00 31 1011.4
20260905234543 37 116 9.7 9.7 0.00 0.00 0.00 31 1011.3
20260905234038 37 96 6.4 9.7 0.00 0.00 0.00 30 1011.5
20260905233050 37 98 3.2 9.7 0.00 0.00 0.00 30 1011.5
20260905232546 37 98 3.2 9.7 0.00 0.00 0.00 30 1011.5
20260905232042 37 17 1.6 9.7 0.00 0.00 0.00 30 1011.5
20260905231542 38 184 6.4 6.4 0.00 0.00 0.00 30 1011.2